331  
ASUS44 KLCH 201610  
RWRLCH  
REGIONAL WEATHER ROUNDUP  
NATIONAL WEATHER SERVICE LAKE CHARLES LA  
1000 AM CST MON NOV 20 2017  
 
NOTE: "FAIR" INDICATES FEW OR NO CLOUDS BELOW 12,000 FEET WITH NO  
SIGNIFICANT WEATHER AND/OR S TO VISIBILITY
.  
 
ACROSS SOUTHEAST TEXAS  
 
CITY SKY/WX TMP DP RH WIND PRES REMARKS
 
BEAUMONT MOSUNNY 57 36 45 E10 30.25R  
BEAUMONT CITY FAIR 57 39 50 E5 30.26S  
ORANGE MOSUNNY 56 39 52 E8 30.27S  
JASPER SUNNY 55 34 45 SE3 30.28S  

 
 
ACROSS CENTRAL LOUISIANA  
 
CITY SKY/WX TMP DP RH WIND PRES REMARKS
 
LEESVILLE NOT AVBL  
FULLERTON FAIR 54 30 40 VRB5 30.24R  
ALEXANDRIA INT MOSUNNY 51 31 46 SE9 30.25F  
ESLER FIELD MOSUNNY 48 35 60 SE3 30.27S  
DERIDDER FAIR 53 29 40 SE9 30.27S  
OAKDALE SUNNY 50 33 52 CALM 30.27R  
OPELOUSAS FAIR 51 32 48 E6 30.26S  

 
 
ACROSS SOUTHWEST AND SOUTH CENTRAL LOUISIANA  
 
CITY SKY/WX TMP DP RH WIND PRES REMARKS
 
SULPHUR SUNNY 57 32 38 E9 30.26S  
LAKE CHARLES SUNNY 55 33 43 SE10 30.25S  
CHENNAULT INT NOT AVBL  
CAMERON PHI SUNNY 55 36 47 E10 30.25S  
DEQUINCY FAIR 53 31 44 E6 30.26S  
JENNINGS FAIR 53 32 44 E6 30.26S  
LAFAYETTE MOSUNNY 42 38 85 VRB3 30.25F  
NEW IBERIA MOSUNNY 55 36 48 SE12 30.25F  
ABBEVILLE FAIR 53 37 54 E3 30.25F  
PATTERSON CLOUDY 53 39 59 E7 30.25F  
SALT POINT N/A 1 32 100 VRB3 30.23F  

 
 
SELECTED SITES ACROSS THE REGION  
 
CITY SKY/WX TMP DP RH WIND PRES REMARKS
 
HOUSTON BUSH PTSUNNY 59 36 42 SE9 30.25R  
HOUSTON HOBBY PTSUNNY 60 39 45 E9 30.24R  
GALVESTON MOSUNNY 66 44 45 E13 30.24R  
COLLEGE STAT SUNNY 58 35 42 SE9 30.24R  
CONROE MOSUNNY 55 36 48 SE9 30.25R  
HUNTSVILLE SUNNY 56 32 40 VRB7 30.24S  
LUFKIN MOSUNNY 52 35 52 SE9 30.26R  
SHREVEPORT PTSUNNY 50 34 54 S9 30.26S  
MONROE MOSUNNY 47 35 63 S6 30.30R  
NATCHEZ MS CLOUDY 48 32 53 SE7 30.27S  
BATON ROUGE MOSUNNY 49 32 52 E3 30.26S  
N.O. INTL ARPT CLOUDY 55 40 56 E8 30.24F  
SLIDELL CLOUDY 50 33 52 E3 30.25S  

 
 
MARINE REPORTS  
 
STATION/POSITION TIME SKY/WX TEMP WIND PRES VSBY
 
AIR SEA DIR/SP/G  
(UTC) (F) (DEG/KT/KT) (MB) (MI)  
BUOY 30 S HIGH I 1450 62 71 90/ 14/ 19 1022.9  
WVE H/P(F/S)= 3/ 5  
 
SEA RIM ST PARK 1600 58 90/ 10/ 13 1024.5R  
PORT ARTHUR 1548 55 67 100/ 8/ 11 1024.5R  
SABINE PASS N 1548 57 69 60/ 12/ 14 1025.4F  
TEXAS POINT NOT AVBL  
CALCASIEU PASS 1548 53 67 100/ 10/ 12 1023.1R  
LK CHARLES BEACH 1536 53 69 1024.1R  
MARSH ISLAND 1500 53 N/A  
FRESH WATER LOCK 1536 55 67 80/ 11/ 13 1023.7F  
AMERADA PASS 1536 51 58 70/ 6/ 11 1023.9F  

 
 
 
CLICK HERE TO GO TO PREVIOUS BULLETINS.

The Nexlab LA Page
The Nexlab TX Page Main Text Page